Weather History for KOEB - September, 2014

Change the Weather History Date:

Wednesday, September 3, 2014

  Actual Average (KJYM) Record (KJYM)
Temperature  
Mean Temperature 71 °F -  
Max Temperature 83 °F 78 °F 93 °F (1973)
Min Temperature 59 °F 54 °F 33 °F (2001)
Cooling Degree Days 6    
Growing Degree Days 21 (Base 50)    
Moisture  
Dew Point 61 °F    
Average Humidity 75    
Maximum Humidity 97    
Minimum Humidity 40    
Precipitation  
Precipitation 0.00 in - - ()
Sea Level Pressure  
Sea Level Pressure 30.03 in    
Wind  
Wind Speed 2 mph (WSW)    
Max Wind Speed 10 mph    
Max Gust Speed 17 mph    
Visibility 9 miles    
Events      
Averages and records for this station are not official NWS values.
T = Trace of Precipitation, MM = Missing Value Source: NWS Daily Summary

Daily Weather History Graph

Daily Weather History Graph

Search for Another Location

Airport or City:

Trip Planner

Search our weather history database for the weather conditions in past years. The results will help you decide how hot, cold, wet, or windy it might be!

Date:

Astronomy

Sep. 03, 2014 Rise Set
Actual Time 7:07 AM EDT 8:10 PM EDT
Civil Twilight 6:39 AM EDT 8:38 PM EDT
Nautical Twilight 6:05 AM EDT 9:12 PM EDT
Astronomical Twilight 5:29 AM EDT 9:48 PM EDT
Moon 3:54 PM EDT (9/3) 12:58 AM EDT (9/3)
Length of Visible Light 13h 59m
Length of Day
13h 02m
Waxing Gibbous, 63% of the Moon is Illuminated
Sep 3
Waxing Gibbous
Sep 8
Full
Sep 15
Last Quarter
Sep 24
New
Oct 1
First Quarter

Hourly Weather History & Observations

Time (EDT) Temp. Heat Index Dew Point Humidity Pressure Visibility Wind Dir Wind Speed Gust Speed Precip Events Conditions
12:15 AM 62.2 °F - 61.2 °F 96% 29.98 in 10.0 mi Calm Calm - N/A   Scattered Clouds
12:34 AM 62.1 °F - 61.0 °F 96% 29.99 in 10.0 mi Calm Calm - N/A   Scattered Clouds
12:55 AM 62.8 °F - 61.7 °F 96% 29.99 in 10.0 mi Calm Calm - N/A   Mostly Cloudy
1:14 AM 62.6 °F - 61.2 °F 95% 29.99 in 10.0 mi Calm Calm - N/A   Mostly Cloudy
1:34 AM 62.1 °F - 61.0 °F 96% 29.99 in 10.0 mi Calm Calm - N/A   Scattered Clouds
1:55 AM 61.9 °F - 60.8 °F 96% 29.99 in 10.0 mi Calm Calm - N/A   Clear
2:14 AM 61.2 °F - 60.1 °F 96% 29.99 in 10.0 mi Calm Calm - N/A   Clear
2:35 AM 61.0 °F - 59.9 °F 96% 29.99 in 10.0 mi Calm Calm - N/A   Clear
2:54 AM 61.0 °F - 60.1 °F 97% 29.99 in 10.0 mi Calm Calm - N/A   Clear
3:14 AM 60.8 °F - 59.9 °F 97% 29.99 in 10.0 mi Calm Calm - N/A   Clear
3:35 AM 60.1 °F - 59.2 °F 97% 29.99 in 10.0 mi Calm Calm - N/A   Clear
3:54 AM 59.7 °F - 58.8 °F 97% 29.99 in 10.0 mi Calm Calm - N/A   Clear
4:14 AM 59.5 °F - 58.6 °F 97% 29.99 in 10.0 mi Calm Calm - N/A   Clear
4:34 AM 59.9 °F - 59.0 °F 97% 29.99 in 10.0 mi Calm Calm - N/A   Clear
4:54 AM 60.1 °F - 59.2 °F 97% 30.00 in 10.0 mi Calm Calm - N/A   Clear
5:15 AM 59.7 °F - 58.8 °F 97% 30.01 in 10.0 mi Calm Calm - N/A   Clear
5:34 AM 59.7 °F - 58.8 °F 97% 30.01 in 7.0 mi Calm Calm - N/A   Clear
5:54 AM 59.9 °F - 59.0 °F 97% 30.01 in 7.0 mi Calm Calm - N/A   Clear
6:15 AM 59.2 °F - 58.3 °F 97% 30.01 in 7.0 mi Calm Calm - N/A   Clear
6:34 AM 59.0 °F - 58.1 °F 97% 30.02 in 7.0 mi Calm Calm - N/A   Clear
6:54 AM 59.2 °F - 58.3 °F 97% 30.02 in 5.0 mi Calm Calm - N/A   Clear
7:15 AM 59.0 °F - 58.1 °F 97% 30.03 in 4.0 mi Calm Calm - N/A   Clear
7:34 AM 59.0 °F - 58.1 °F 97% 30.03 in 4.0 mi Calm Calm - N/A   Clear
7:54 AM 60.6 °F - 59.7 °F 97% 30.04 in 4.0 mi Calm Calm - N/A   Clear
8:14 AM 62.4 °F - 61.5 °F 97% 30.04 in 4.0 mi Calm Calm - N/A   Clear
8:34 AM 65.1 °F - 64.2 °F 97% 30.04 in 4.0 mi Calm Calm - N/A   Clear
8:55 AM 66.6 °F - 64.9 °F 95% 30.05 in 5.0 mi SW 3.5 mph - N/A   Clear
9:14 AM 68.0 °F - 65.1 °F 90% 30.05 in 7.0 mi SW 3.5 mph - N/A   Clear
9:34 AM 69.6 °F - 65.3 °F 86% 30.05 in 7.0 mi Calm Calm - N/A   Clear
9:55 AM 71.2 °F - 66.0 °F 84% 30.06 in 10.0 mi Calm Calm - N/A   Clear
10:14 AM 73.2 °F - 66.4 °F 79% 30.06 in 10.0 mi SW 3.5 mph - N/A   Clear
10:34 AM 75.2 °F - 65.5 °F 72% 30.06 in 10.0 mi Calm Calm - N/A   Clear
10:54 AM 76.5 °F - 64.9 °F 67% 30.06 in 10.0 mi SW 4.6 mph - N/A   Clear
11:14 AM 77.5 °F - 62.2 °F 59% 30.06 in 10.0 mi SSW 3.5 mph - N/A   Clear
11:35 AM 78.3 °F - 62.6 °F 58% 30.06 in 10.0 mi SSW 4.6 mph - N/A   Scattered Clouds
11:54 AM 77.7 °F - 60.8 °F 56% 30.06 in 10.0 mi Calm Calm - N/A   Scattered Clouds
12:14 PM 79.2 °F - 62.4 °F 56% 30.05 in 10.0 mi West 5.8 mph - N/A   Scattered Clouds
12:35 PM 79.7 °F - 61.5 °F 54% 30.05 in 10.0 mi SW 3.5 mph - N/A   Scattered Clouds
12:54 PM 80.6 °F 81.4 °F 60.4 °F 50% 30.05 in 10.0 mi WSW 9.2 mph - N/A   Mostly Cloudy
1:14 PM 80.1 °F 80.8 °F 59.5 °F 49% 30.05 in 10.0 mi West 9.2 mph - N/A   Scattered Clouds
1:35 PM 79.2 °F - 59.4 °F 51% 30.05 in 10.0 mi WSW 8.1 mph - N/A   Scattered Clouds
1:54 PM 81.0 °F 81.3 °F 58.8 °F 47% 30.04 in 10.0 mi West 9.2 mph - N/A   Scattered Clouds
2:14 PM 81.7 °F 81.9 °F 59.0 °F 46% 30.04 in 10.0 mi WSW 9.2 mph - N/A   Scattered Clouds
2:35 PM 82.6 °F 82.6 °F 59.0 °F 45% 30.04 in 10.0 mi WSW 8.1 mph - N/A   Scattered Clouds
2:54 PM 82.4 °F 82.0 °F 57.0 °F 42% 30.05 in 10.0 mi WSW 10.4 mph 17.3 mph N/A   Scattered Clouds
3:14 PM 82.6 °F 82.0 °F 55.9 °F 40% 30.05 in 10.0 mi WSW 8.1 mph - N/A   Mostly Cloudy
3:35 PM 83.7 °F 83.4 °F 59.0 °F 43% 30.04 in 10.0 mi West 5.8 mph - N/A   Mostly Cloudy
3:54 PM 82.2 °F 82.1 °F 58.5 °F 44% 30.03 in 10.0 mi SSW 8.1 mph - N/A   Scattered Clouds
4:15 PM 83.1 °F 82.7 °F 57.7 °F 42% 30.02 in 10.0 mi WSW 3.5 mph - N/A   Mostly Cloudy
4:34 PM 82.4 °F 82.5 °F 58.8 °F 45% 30.02 in 10.0 mi WSW 8.1 mph - N/A   Scattered Clouds
4:54 PM 82.4 °F 82.5 °F 59.0 °F 45% 30.02 in 10.0 mi WSW 9.2 mph - N/A   Scattered Clouds
5:15 PM 81.9 °F 81.8 °F 58.1 °F 44% 30.02 in 10.0 mi West 9.2 mph - N/A   Clear
5:34 PM 81.9 °F 82.1 °F 59.0 °F 46% 30.02 in 10.0 mi SW 6.9 mph - N/A   Clear
5:54 PM 81.7 °F 81.6 °F 57.9 °F 44% 30.02 in 10.0 mi WSW 6.9 mph - N/A   Scattered Clouds
6:15 PM 81.0 °F 81.0 °F 57.4 °F 44% 30.02 in 10.0 mi WSW 6.9 mph - N/A   Clear
6:34 PM 80.8 °F 81.0 °F 57.6 °F 45% 30.02 in 10.0 mi WSW 6.9 mph - N/A   Clear
6:54 PM 80.1 °F 80.7 °F 59.0 °F 48% 30.03 in 10.0 mi West 4.6 mph - N/A   Clear
7:14 PM 78.8 °F - 60.3 °F 53% 30.02 in 10.0 mi WSW 3.5 mph - N/A   Clear
7:34 PM 77.4 °F - 61.5 °F 58% 30.02 in 10.0 mi Calm Calm - N/A   Clear
7:55 PM 75.7 °F - 62.4 °F 63% 30.02 in 10.0 mi Calm Calm - N/A   Clear
8:14 PM 71.6 °F - 63.9 °F 76% 30.02 in 10.0 mi Calm Calm - N/A   Clear
8:34 PM 71.6 °F - 62.6 °F 73% 30.03 in 10.0 mi Calm Calm - N/A   Clear
8:55 PM 68.7 °F - 63.1 °F 82% 30.03 in 10.0 mi Calm Calm - N/A   Clear
9:14 PM 68.2 °F - 62.8 °F 83% 30.04 in 10.0 mi Calm Calm - N/A   Clear
9:34 PM 67.5 °F - 62.8 °F 85% 30.04 in 10.0 mi Calm Calm - N/A   Scattered Clouds
9:55 PM 66.7 °F - 63.5 °F 89% 30.04 in 10.0 mi Calm Calm - N/A   Scattered Clouds
10:14 PM 65.8 °F - 63.5 °F 92% 30.05 in 10.0 mi Calm Calm - N/A   Mostly Cloudy
10:34 PM 66.6 °F - 63.0 °F 88% 30.05 in 10.0 mi Calm Calm - N/A   Scattered Clouds
10:55 PM 67.3 °F - 62.2 °F 84% 30.05 in 10.0 mi Calm Calm - N/A   Clear
11:14 PM 66.4 °F - 62.6 °F 88% 30.05 in 10.0 mi Calm Calm - N/A   Clear
11:54 PM 67.1 °F - 62.6 °F 85% 30.06 in 10.0 mi South 3.5 mph - N/A   Clear